Terminal Aerodrome Forecast
Issued by NWS Corpus Christi, TX

Home | Current Version | Previous Version | Text Only | Print | Product List | Glossary On
Versions: 1 2 3 4 5 6 7 8 9 10 11 12 13 14 15 16
000
FTUS44 KCRP 302300
TAFCRP
TAF
KCRP 302320Z 3100/3124 12013KT P6SM FEW025 SCT035 BKN150
     FM310800 VRB06KT P6SM SCT025 BKN070 PROB30 3110/3116 4SM TSRA
      BR BKN025CB
     FM311700 15013KT P6SM SCT030 BKN120=

USA.gov is the U.S. government's official web portal to all federal, state and local government web resources and services.